Regional Weather Roundup
Issued by NWS

Home | Current Version | Previous Version | Graphics & Text | Print | Product List | Glossary On
Versions: 1 2 3 4 5 6 7 8 9 10 11 12 13 14 15 16 17 18 19 20 21 22 23 24 25 26 27 28 29 30 31 32 33 34 35 36 37 38 39 40 41 42 43 44 45 46 47 48 49 50
000
ASUS45 KPSR 272210
RWRAZ

ARIZONA REGIONAL HOURLY WEATHER ROUNDUP
NATIONAL WEATHER SERVICE PHOENIX AZ
300 PM MST THU NOV 27 2014

NOTE: FAIR INDICATES FEW OR NO CLOUDS BELOW 12,000 FEET WITH NO
SIGNIFICANT WEATHER AND/OR OBSTRUCTIONS TO VISIBILITY.

AZZ001>003-036-272300-
NORTHWEST ARIZONA

CITY           SKY/WX    TMP DP  RH WIND       PRES   REMARKS
BULLHEAD CITY  PTSUNNY   75  19  12 N20G25    30.12F
KINGMAN        PTSUNNY   75  12   9 W3        30.20F
$$

AZZ004>008-015-016-018-272300-
NORTH CENTRAL ARIZONA

CITY           SKY/WX    TMP DP  RH WIND       PRES   REMARKS
GRAND CANYON   MOSUNNY   66   2   8 W3        30.36F
PRESCOTT       SUNNY     71  10   9 VRB3      30.28F
FLAGSTAFF      SUNNY     66  12  12 CALM      30.38F
PAYSON         SUNNY     66  16  14 CALM      30.32S
PAGE           PTSUNNY   57  19  22 CALM      30.32F
$$

AZZ009>014-017-272300-
NORTHEAST ARIZONA

CITY           SKY/WX    TMP DP  RH WIND       PRES   REMARKS
WINSLOW        SUNNY     62  18  18 CALM      30.33F
SAINT JOHNS    SUNNY     65  16  15 N3        30.32F
SHOW LOW       SUNNY     59  16  18 N6        30.38F
$$

AZZ023-272300-
GREATER PHOENIX AREA

CITY           SKY/WX    TMP DP  RH WIND       PRES   REMARKS
PHOENIX        MOSUNNY   86  20   9 NE3       30.07F
BUCKEYE          N/A     82  19   9 E14G20    30.08F
GLENDALE       SUNNY     82  27  13 CALM      30.09F
LUKE AFB       SUNNY     82  27  13 N1        30.07F HAZE
DEER VALLEY    SUNNY     83  18   9 S5        30.08F
SCOTTSDALE     SUNNY     84  19   9 NW3       30.10F
MESA-FALCON    SUNNY     82  21  10 NW6       30.08F
MESA-GATEWAY   SUNNY     81  28  15 CALM      30.10F
CHANDLER       SUNNY     81  28  15 VRB5      30.08F
$$

AZZ027-028-272300-
SOUTHWEST MARICOPA COUNTY AND PINAL COUNTY

CITY           SKY/WX    TMP DP  RH WIND       PRES   REMARKS
CASA GRANDE    SUNNY     82  25  12 E3        30.08F
$$

AZZ503-504-507>509-272300-
SOUTHEAST ARIZONA

CITY           SKY/WX    TMP DP  RH WIND       PRES   REMARKS
TUCSON         SUNNY     83  18   9 E13       30.14F
DAVIS-MONTHAN  SUNNY     82  19   9 E10       30.12F
RYAN FIELD       N/A    N/A N/A N/A E14       30.12F
NOGALES        SUNNY     80  18  10 VRB5      30.17F
SIERRA VISTA   SUNNY     73  17  12 SE6       30.25F
DOUGLAS        SUNNY     74  20  13 E14       30.23F
SAFFORD        SUNNY     73  19  13 S7        30.22F
$$

AZZ020-021-025-026-031-272300-
SOUTHWEST ARIZONA

CITY           SKY/WX    TMP DP  RH WIND       PRES   REMARKS
YUMA           MOSUNNY   85  20   9 N7        30.05F
$$

CAZ031-033-041-043-047-048-061-272300-
SOUTHERN CALIFORNIA

CITY           SKY/WX    TMP DP  RH WIND       PRES   REMARKS
DOWNTOWN L.A.  SUNNY     89  19   7 CALM      29.99F
L.A. AIRPORT   PTSUNNY   76  42  29 W10       30.01F
SAN DIEGO      MOSUNNY   84  21  10 NW6       30.01F
BURBANK        SUNNY     88  18   7 S5        30.02F
ONTARIO        PTSUNNY   87  15   7 W3        30.03F
RIVERSIDE      SUNNY     90  13   6 CALM      30.02F
PALM SPRINGS   SUNNY     83  22  10 SE6       30.08F
EL CENTRO NAS  SUNNY     83  31  15 CALM      30.05F
IMPERIAL       SUNNY     81  28  14 NW3       30.05F
BLYTHE         SUNNY     80  21  11 CALM      30.08F
NEEDLES        PTSUNNY   75  21  13 CALM      30.12F
$$

NVZ020-UTZ003-272300-
SOUTHERN NEVADA-UTAH

CITY           SKY/WX    TMP DP  RH WIND       PRES   REMARKS
LAS VEGAS      CLOUDY    64  20  18 S7        30.16F
SALT LAKE CITY CLOUDY    57  26  30 SE6       30.20F
$$

NMZ009-TXZ055-272300-
NEW MEXICO-WEST TEXAS

CITY           SKY/WX    TMP DP  RH WIND       PRES   REMARKS
ALBUQUERQUE    MOSUNNY   59  22  24 CALM      30.34F
EL PASO        SUNNY     66  21  18 E5        30.30F
$$


........................KEY........................
SKY/WX - SKY CONDITION/WEATHER
TMP    - TEMPERATURE IN FAHRENHEIT
DP     - DEW POINT IN FAHRENHEIT
RH     - RELATIVE HUMIDITY IN PERCENT
WIND   - DIRECTION AND SPEED IN MILES PER HOUR (MPH)
VRB    - VARIABLE WIND DIRECTION
PRES   - MEAN SEA LEVEL PRESSURE IN INCHES OF MERCURY
         F - FALLING PRESSURE   R - RISING PRESSURE
         S - STEADY PRESSURE
VSB    - VISIBILITY IN MILES
HX     - HEAT INDEX IN FAHRENHEIT
WCI    - WIND CHILL INDEX IN FAHRENHEIT
TC     - TEMPERATURE IN CELSIUS WHICH IS ALSO KNOWN AS
         TEMPERATURE IN CENTIGRADE
AFB    - AIR FORCE BASE
         LUKE AFB IS LUKE AIR FORCE BASE
         DAVIS-MONTHAN IS DAVIS-MONTHAN AIR FORCE BASE
NAS    - NAVAL AIR STATION
         EL CENTRO NAS IS EL CENTRO NAVAL AIR STATION
N/A    - NOT AVAILABLE


USA.gov is the U.S. government's official web portal to all federal, state and local government web resources and services.